Location: Gleizolles
(44.4833°N, 6.7667°E)
Time: 20:57:56
(UTC+00:00)

A-11 Canister half - Pass Details

Date: 30 June 2024
Orbit: 1524 x 1684 km, 47.3° (Epoch: 18 July)

Event Time Altitude Azimuth Distance (km) Brightness Sun altitude
Rises 10:43:04 0° 240° (WSW) 4,795 11.6 66.0°
Reaches altitude 10° 10:46:12 10° 239° (WSW) 3,789 11.2 66.3°
Maximum altitude 10:55:47 80° 155° (SSE) 1,576 11.3 67.1°
Drops below altitude 10° 11:05:07 10° 70° (ENE) 3,701 11.2 67.7°
Sets 11:08:08 0° 70° (ENE) 4,678 11.5 67.8°
